GW0824 Weather Reports


Display with metric or nautical units.
time (UTC)temp
F
wind
direction
speed
MPH
gust
MPH
rain 1hr
in
rain 24hr
in
rain mn
in
humidity
%
barometer
mb
20260904091600 69 65 0.0 1.0 0.00 0.00 0.00 71 893.1
20260904090058 69 67 0.0 0.0 0.00 0.00 0.00 73 893.0
20260904084559 69 42 0.0 1.0 0.00 0.00 0.00 73 893.1
20260904083057 69 45 0.0 0.0 0.00 0.00 0.00 71 893.1
20260904081553 69 31 0.0 0.0 0.00 0.00 0.00 69 893.1
20260904080052 70 360 0.0 0.0 0.00 0.00 0.00 67 893.3
20260904074548 70 55 0.0 0.0 0.00 0.00 0.00 66 893.3
20260904073049 70 32 0.0 2.0 0.00 0.00 0.00 66 893.3
20260904071544 71 19 0.0 1.0 0.00 0.00 0.00 65 893.5
20260904070042 71 42 0.0 0.0 0.00 0.00 0.00 64 893.6
20260904064538 72 49 0.0 2.0 0.00 0.00 0.00 61 893.8
20260904063138 72 22 0.0 0.0 0.00 0.00 0.00 61 893.7
20260904061541 72 26 0.0 0.0 0.00 0.00 0.00 61 893.8
20260904060032 73 15 0.0 0.0 0.00 0.00 0.00 60 893.7
20260904054532 73 26 0.0 0.0 0.00 0.00 0.00 60 893.6
20260904053030 74 21 0.0 0.0 0.00 0.00 0.00 59 893.6
20260904051527 74 57 0.0 0.0 0.00 0.00 0.00 59 893.7
20260904050025 74 11 0.0 2.0 0.00 0.00 0.00 59 893.8
20260904044522 74 29 0.0 0.0 0.00 0.00 0.00 59 893.7
20260904043023 74 30 0.0 0.0 0.00 0.00 0.00 60 893.9
20260904041624 74 33 0.0 1.0 0.00 0.00 0.00 61 894.0
20260904040021 73 38 0.0 1.0 0.00 0.00 0.00 62 894.0
20260904034521 74 26 0.0 0.0 0.00 0.00 0.00 62 894.0
20260904033023 74 23 0.0 0.0 0.00 0.00 0.00 62 894.1
20260904031519 74 18 0.0 0.0 0.00 0.00 0.00 62 893.9
20260904030019 75 18 0.0 2.0 0.00 0.00 0.00 61 894.0
20260904024518 75 9 0.0 0.0 0.00 0.00 0.00 60 893.8
20260904023017 76 26 0.0 1.0 0.00 0.00 0.00 57 893.6
20260904021526 78 24 0.0 1.0 0.00 0.00 0.00 53 893.6
20260904020120 79 360 0.0 0.0 0.00 0.00 0.00 48 893.4
20260904014517 82 360 0.0 2.0 0.00 0.00 0.00 44 893.2
20260904013015 83 360 0.0 3.0 0.00 0.00 0.00 42 893.0
20260904011518 86 360 0.0 0.0 0.00 0.00 0.00 40 893.0
20260904010016 88 355 0.0 1.0 0.00 0.00 0.00 36 893.0
20260904004514 90 350 0.0 1.0 0.00 0.00 0.00 35 893.0
20260904003020 91 355 0.0 2.0 0.00 0.00 0.00 34 893.1
20260904001516 92 15 0.0 0.0 0.00 0.00 0.00 32 893.1
20260904000013 92 336 0.0 0.0 0.00 0.00 0.00 30 893.2
20260903234515 92 317 0.0 1.0 0.00 0.00 0.00 30 893.2
20260903233012 93 319 0.0 2.0 0.00 0.00 0.00 30 893.2
20260903231527 93 322 0.0 0.0 0.00 0.00 0.00 30 893.2
20260903230010 93 347 0.0 0.0 0.00 0.00 0.00 30 893.2
20260903224525 94 250 0.0 0.0 0.00 0.00 0.00 28 893.2
20260903223011 94 236 0.0 0.0 0.00 0.00 0.00 29 893.2
20260903221508 94 265 0.0 0.0 0.00 0.00 0.00 29 893.1
20260903220005 93 267 0.0 2.0 0.00 0.00 0.00 29 893.2
20260903214500 93 321 0.0 2.0 0.00 0.00 0.00 29 893.1
20260903213102 93 341 0.0 2.0 0.00 0.00 0.00 30 893.2
20260903211555 93 233 0.0 2.0 0.00 0.00 0.00 29 893.1
20260903210123 93 263 0.0 2.0 0.00 0.00 0.00 31 893.2
20260903204551 92 223 0.0 1.0 0.00 0.00 0.00 31 893.3
20260903203105 92 342 0.0 1.0 0.00 0.00 0.00 32 893.4
20260903201547 91 240 1.0 3.0 0.00 0.00 0.00 33 893.2
20260903200052 91 263 2.0 4.0 0.00 0.00 0.00 33 893.3
20260903194542 91 220 1.0 3.0 0.00 0.00 0.00 34 893.4
20260903193039 91 340 1.0 3.0 0.00 0.00 0.00 36 893.6
20260903191540 90 224 0.0 3.0 0.00 0.00 0.00 37 893.7
20260903190035 89 248 1.0 10.0 0.00 0.00 0.00 38 893.7
20260903184531 88 207 1.0 5.0 0.00 0.00 0.00 39 893.8
20260903183028 87 223 0.0 4.0 0.00 0.00 0.00 40 893.8
20260903181528 87 217 1.0 4.0 0.00 0.00 0.00 42 894.0
20260903180122 86 211 0.0 5.0 0.00 0.00 0.00 45 894.1
20260903174519 85 221 1.0 5.0 0.00 0.00 0.00 45 894.1
20260903173016 85 265 0.0 3.0 0.00 0.00 0.00 47 894.1
20260903171513 84 360 1.0 3.0 0.00 0.00 0.00 50 893.9
20260903170011 83 360 1.0 6.0 0.00 0.00 0.00 51 894.0
20260903164506 81 360 1.0 5.0 0.00 0.00 0.00 54 893.7
20260903163003 80 360 0.0 5.0 0.00 0.00 0.00 55 893.9
20260903161501 79 360 2.0 8.0 0.00 0.00 0.00 57 893.8
20260903160127 78 360 0.0 9.0 0.00 0.00 0.00 60 893.7
20260903154607 77 360 1.0 8.0 0.00 0.00 0.00 61 893.5
20260903153054 76 360 2.0 8.0 0.00 0.00 0.00 63 893.4
20260903151551 75 360 1.0 5.0 0.00 0.00 0.00 64 893.3
20260903150050 73 360 1.0 4.0 0.00 0.00 0.00 66 893.2
20260903144547 71 360 0.0 4.0 0.00 0.00 0.00 70 893.1
20260903143102 69 360 1.0 4.0 0.00 0.00 0.00 71 893.1
20260903141559 68 360 0.0 3.0 0.00 0.00 0.00 73 893.0
20260903140046 66 360 1.0 4.0 0.00 0.00 0.00 76 893.0
20260903134551 64 177 2.0 6.0 0.00 0.00 0.00 76 892.9
20260903133045 64 184 1.0 5.0 0.00 0.00 0.00 76 892.8
20260903131545 64 161 1.0 5.0 0.00 0.00 0.00 78 892.7
20260903130041 63 360 0.0 3.0 0.00 0.00 0.00 80 892.6
20260903124544 63 360 0.0 2.0 0.00 0.00 0.00 82 892.4
20260903123040 64 360 0.0 2.0 0.00 0.00 0.00 81 892.4
20260903121536 65 360 0.0 0.0 0.00 0.00 0.00 80 892.4
20260903120035 65 360 0.0 0.0 0.00 0.00 0.00 79 892.3
20260903114535 66 360 0.0 0.0 0.00 0.00 0.00 78 892.2
20260903113030 66 360 0.0 0.0 0.00 0.00 0.00 76 891.9
20260903111538 67 360 0.0 0.0 0.00 0.00 0.00 75 891.9
20260903110027 67 360 1.0 2.0 0.00 0.00 0.00 75 891.8
20260903104524 67 360 0.0 0.0 0.00 0.00 0.00 74 891.9
20260903103021 68 360 0.0 0.0 0.00 0.00 0.00 72 892.0
20260903101533 69 360 0.0 2.0 0.00 0.00 0.00 70 891.9
20260903100017 69 360 0.0 0.0 0.00 0.00 0.00 70 892.0
20260903094514 70 360 0.0 0.0 0.00 0.00 0.00 69 892.1
20260903093014 71 360 0.0 0.0 0.00 0.00 0.00 67 892.3